| time (UTC) | temp F | wind direction | speed MPH | gust MPH | rain 1hr in | rain 24hr in | rain mn in | humidity % | barometer mb |
| 20260510224528 | 64 | 360 | 0.0 | 1.0 | 0.00 | 0.02 | 0.02 | 64 | 1012.1 |
| 20260510223026 | 64 | 349 | 0.0 | 4.0 | 0.00 | 0.02 | 0.02 | 65 | 1012.1 |
| 20260510221524 | 65 | 335 | 1.0 | 4.0 | 0.00 | 0.02 | 0.02 | 61 | 1012.0 |
| 20260510220027 | 64 | 315 | 0.0 | 3.0 | 0.00 | 0.02 | 0.02 | 69 | 1012.1 |
| 20260510214521 | 63 | 58 | 0.0 | 4.0 | 0.00 | 0.02 | 0.02 | 68 | 1011.9 |
| 20260510213022 | 64 | 63 | 1.0 | 4.0 | 0.00 | 0.02 | 0.02 | 73 | 1011.8 |
| 20260510211537 | 63 | 33 | 2.0 | 5.0 | 0.00 | 0.02 | 0.02 | 72 | 1011.7 |
| 20260510210021 | 62 | 20 | 0.0 | 4.0 | 0.02 | 0.02 | 0.02 | 77 | 1011.7 |
| 20260510204518 | 62 | 339 | 2.0 | 6.0 | 0.02 | 0.04 | 0.02 | 76 | 1011.5 |
| 20260510203021 | 63 | 281 | 1.0 | 5.0 | 0.02 | 0.04 | 0.02 | 81 | 1011.5 |
| 20260510201516 | 63 | 336 | 1.0 | 7.0 | 0.02 | 0.04 | 0.02 | 77 | 1011.5 |
| 20260510200019 | 67 | 271 | 2.0 | 5.0 | 0.00 | 0.02 | 0.00 | 68 | 1011.1 |
| 20260510194519 | 68 | 296 | 1.0 | 3.0 | 0.00 | 0.06 | 0.00 | 65 | 1010.7 |
| 20260510193014 | 68 | 312 | 1.0 | 4.0 | 0.00 | 0.06 | 0.00 | 65 | 1010.7 |
| 20260510191524 | 70 | 244 | 1.0 | 9.0 | 0.00 | 0.06 | 0.00 | 62 | 1010.6 |
| 20260510190013 | 70 | 309 | 1.0 | 4.0 | 0.00 | 0.06 | 0.00 | 62 | 1010.7 |
| 20260510184511 | 68 | 333 | 2.0 | 8.0 | 0.00 | 0.10 | 0.00 | 65 | 1011.0 |
| 20260510183011 | 67 | 273 | 1.0 | 9.0 | 0.00 | 0.10 | 0.00 | 67 | 1011.0 |
| 20260510181509 | 68 | 306 | 1.0 | 4.0 | 0.00 | 0.10 | 0.00 | 67 | 1011.1 |
| 20260510180009 | 69 | 190 | 2.0 | 4.0 | 0.00 | 0.10 | 0.00 | 65 | 1010.7 |
| 20260510174508 | 69 | 232 | 0.0 | 6.0 | 0.00 | 0.12 | 0.00 | 70 | 1011.0 |
| 20260510173007 | 67 | 270 | 1.0 | 3.0 | 0.00 | 0.12 | 0.00 | 68 | 1010.7 |
| 20260510171512 | 67 | 5 | 3.0 | 6.0 | 0.00 | 0.12 | 0.00 | 69 | 1010.9 |
| 20260510170007 | 68 | 263 | 3.0 | 8.0 | 0.00 | 0.12 | 0.00 | 65 | 1010.9 |
| 20260510164510 | 70 | 227 | 2.0 | 11.0 | 0.00 | 0.15 | 0.00 | 67 | 1011.0 |
| 20260510163002 | 68 | 234 | 2.0 | 8.0 | 0.00 | 0.15 | 0.00 | 69 | 1011.0 |
| 20260510161600 | 67 | 277 | 4.0 | 9.0 | 0.00 | 0.15 | 0.00 | 68 | 1011.2 |
| 20260510160125 | 66 | 232 | 2.0 | 6.0 | 0.00 | 0.15 | 0.00 | 69 | 1011.1 |
| 20260510154607 | 66 | 269 | 0.0 | 6.0 | 0.00 | 0.16 | 0.00 | 73 | 1011.3 |
| 20260510153057 | 67 | 308 | 3.0 | 7.0 | 0.00 | 0.16 | 0.00 | 71 | 1011.3 |
| 20260510151555 | 66 | 304 | 3.0 | 5.0 | 0.00 | 0.16 | 0.00 | 72 | 1011.2 |
| 20260510150052 | 64 | 142 | 1.0 | 4.0 | 0.00 | 0.16 | 0.00 | 77 | 1011.2 |
| 20260510144603 | 63 | 207 | 0.0 | 5.0 | 0.00 | 0.17 | 0.00 | 77 | 1011.2 |
| 20260510143047 | 63 | 306 | 1.0 | 5.0 | 0.00 | 0.17 | 0.00 | 79 | 1011.2 |
| 20260510141544 | 62 | 240 | 1.0 | 5.0 | 0.00 | 0.17 | 0.00 | 81 | 1011.2 |
| 20260510140040 | 61 | 162 | 2.0 | 6.0 | 0.00 | 0.17 | 0.00 | 82 | 1011.3 |
| 20260510134542 | 60 | 290 | 0.0 | 5.0 | 0.00 | 0.18 | 0.00 | 85 | 1011.4 |
| 20260510133032 | 58 | 202 | 2.0 | 7.0 | 0.00 | 0.18 | 0.00 | 86 | 1011.5 |
| 20260510131535 | 57 | 220 | 2.0 | 7.0 | 0.00 | 0.18 | 0.00 | 88 | 1011.6 |
| 20260510130025 | 55 | 250 | 0.0 | 4.0 | 0.00 | 0.18 | 0.00 | 92 | 1011.7 |
| 20260510124521 | 54 | 233 | 0.0 | 3.0 | 0.00 | 0.18 | 0.00 | 92 | 1011.4 |
| 20260510123026 | 53 | 250 | 0.0 | 2.0 | 0.00 | 0.18 | 0.00 | 93 | 1011.3 |
| 20260510121520 | 53 | 250 | 0.0 | 0.0 | 0.00 | 0.18 | 0.00 | 94 | 1011.3 |
| 20260510120017 | 53 | 251 | 0.0 | 0.0 | 0.00 | 0.18 | 0.00 | 93 | 1011.3 |
| 20260510114512 | 52 | 251 | 0.0 | 0.0 | 0.00 | 0.19 | 0.00 | 94 | 1011.2 |
| 20260510113017 | 52 | 251 | 0.0 | 1.0 | 0.00 | 0.19 | 0.00 | 94 | 1011.4 |
| 20260510111508 | 52 | 251 | 0.0 | 0.0 | 0.00 | 0.19 | 0.00 | 94 | 1011.1 |
| 20260510110016 | 52 | 251 | 0.0 | 0.0 | 0.00 | 0.19 | 0.00 | 94 | 1011.2 |
| 20260510104506 | 52 | 251 | 0.0 | 0.0 | 0.00 | 0.24 | 0.00 | 94 | 1011.1 |
| 20260510103004 | 52 | 251 | 0.0 | 1.0 | 0.00 | 0.24 | 0.00 | 94 | 1010.8 |
| 20260510101501 | 51 | 223 | 2.0 | 5.0 | 0.00 | 0.24 | 0.00 | 95 | 1010.7 |
| 20260510100100 | 51 | 119 | 0.0 | 3.0 | 0.00 | 0.24 | 0.00 | 95 | 1010.3 |
| 20260510094611 | 51 | 71 | 0.0 | 6.0 | 0.00 | 0.33 | 0.00 | 95 | 1010.3 |
| 20260510093119 | 51 | 225 | 0.0 | 4.0 | 0.00 | 0.33 | 0.00 | 95 | 1010.1 |
| 20260510091600 | 51 | 336 | 1.0 | 2.0 | 0.00 | 0.33 | 0.00 | 95 | 1009.8 |
| 20260510090058 | 50 | 166 | 3.0 | 7.0 | 0.00 | 0.33 | 0.00 | 95 | 1009.5 |
| 20260510084600 | 50 | 316 | 0.0 | 3.0 | 0.00 | 0.39 | 0.00 | 95 | 1009.8 |
| 20260510083057 | 50 | 316 | 0.0 | 2.0 | 0.00 | 0.39 | 0.00 | 95 | 1010.0 |
| 20260510081551 | 50 | 316 | 0.0 | 0.0 | 0.00 | 0.39 | 0.00 | 95 | 1010.4 |
| 20260510080052 | 50 | 316 | 0.0 | 0.0 | 0.00 | 0.39 | 0.00 | 95 | 1010.6 |
| 20260510074550 | 49 | 316 | 0.0 | 0.0 | 0.00 | 0.40 | 0.00 | 95 | 1010.8 |
| 20260510073050 | 49 | 316 | 0.0 | 2.0 | 0.00 | 0.40 | 0.00 | 95 | 1010.7 |
| 20260510071552 | 49 | 316 | 0.0 | 0.0 | 0.00 | 0.40 | 0.00 | 95 | 1010.8 |
| 20260510070045 | 49 | 316 | 0.0 | 0.0 | 0.00 | 0.40 | 0.00 | 94 | 1010.5 |
| 20260510064543 | 49 | 316 | 0.0 | 0.0 | 0.00 | 0.40 | 0.00 | 94 | 1010.2 |
| 20260510063042 | 49 | 316 | 0.0 | 0.0 | 0.00 | 0.40 | 0.00 | 94 | 1010.2 |
| 20260510061542 | 49 | 316 | 0.0 | 0.0 | 0.00 | 0.40 | 0.00 | 94 | 1010.1 |
| 20260510060039 | 50 | 316 | 0.0 | 0.0 | 0.00 | 0.40 | 0.00 | 94 | 1010.3 |
| 20260510054538 | 50 | 316 | 0.0 | 0.0 | 0.00 | 0.40 | 0.00 | 94 | 1010.5 |
| 20260510053052 | 50 | 316 | 0.0 | 0.0 | 0.00 | 0.40 | 0.00 | 93 | 1010.4 |
| 20260510051540 | 50 | 316 | 0.0 | 0.0 | 0.00 | 0.40 | 0.00 | 93 | 1010.2 |
| 20260510050038 | 51 | 200 | 0.0 | 2.0 | 0.00 | 0.40 | 0.00 | 93 | 1010.2 |
| 20260510044533 | 51 | 200 | 0.0 | 0.0 | 0.00 | 0.40 | 0.00 | 93 | 1010.3 |
| 20260510043041 | 51 | 198 | 0.0 | 0.0 | 0.00 | 0.40 | 0.00 | 93 | 1010.2 |
| 20260510041528 | 52 | 198 | 0.0 | 0.0 | 0.00 | 0.40 | 0.00 | 93 | 1010.6 |
| 20260510040033 | 52 | 198 | 0.0 | 0.0 | 0.00 | 0.40 | 0.00 | 92 | 1010.4 |
| 20260510034521 | 52 | 198 | 0.0 | 2.0 | 0.00 | 0.40 | 0.40 | 92 | 1010.1 |
| 20260510033020 | 52 | 204 | 1.0 | 4.0 | 0.00 | 0.40 | 0.40 | 92 | 1010.3 |
| 20260510031523 | 52 | 65 | 0.0 | 7.0 | 0.00 | 0.40 | 0.40 | 93 | 1010.2 |
| 20260510030019 | 52 | 234 | 0.0 | 7.0 | 0.00 | 0.40 | 0.40 | 93 | 1010.2 |
| 20260510024519 | 52 | 218 | 2.0 | 4.0 | 0.00 | 0.40 | 0.40 | 93 | 1010.3 |
| 20260510023021 | 51 | 180 | 0.0 | 3.0 | 0.00 | 0.40 | 0.40 | 94 | 1010.2 |
| 20260510021531 | 51 | 215 | 0.0 | 2.0 | 0.00 | 0.40 | 0.40 | 94 | 1010.4 |
| 20260510020017 | 51 | 214 | 0.0 | 2.0 | 0.00 | 0.40 | 0.40 | 94 | 1010.3 |
| 20260510014519 | 51 | 157 | 0.0 | 3.0 | 0.00 | 0.40 | 0.40 | 94 | 1010.4 |
| 20260510013022 | 50 | 167 | 0.0 | 3.0 | 0.00 | 0.40 | 0.40 | 93 | 1010.3 |
| 20260510011514 | 50 | 207 | 1.0 | 6.0 | 0.00 | 0.40 | 0.40 | 93 | 1010.5 |
| 20260510010014 | 50 | 108 | 0.0 | 0.0 | 0.00 | 0.40 | 0.40 | 93 | 1010.5 |
| 20260510004613 | 50 | 108 | 0.0 | 0.0 | 0.00 | 0.40 | 0.40 | 92 | 1010.1 |
| 20260510003013 | 51 | 108 | 0.0 | 0.0 | 0.00 | 0.40 | 0.40 | 91 | 1009.8 |
| 20260510001513 | 52 | 108 | 0.0 | 0.0 | 0.00 | 0.40 | 0.40 | 90 | 1009.5 |
| 20260510000012 | 52 | 108 | 0.0 | 3.0 | 0.00 | 0.40 | 0.40 | 89 | 1009.2 |
| 20260509234512 | 53 | 201 | 3.0 | 8.0 | 0.00 | 0.40 | 0.40 | 89 | 1009.0 |
| 20260509233011 | 53 | 146 | 0.0 | 6.0 | 0.00 | 0.40 | 0.40 | 90 | 1009.1 |
| 20260509231509 | 53 | 157 | 1.0 | 5.0 | 0.00 | 0.40 | 0.40 | 91 | 1009.2 |
| 20260509230010 | 53 | 178 | 0.0 | 5.0 | 0.00 | 0.40 | 0.40 | 91 | 1009.2 |